Regional Weather Roundup
Issued by NWS

Home | Current Version | Previous Version | Graphics & Text | Print | Product List | Glossary On
Versions: 1 2 3 4 5 6 7 8 9 10 11 12 13 14 15 16 17 18 19 20 21 22 23 24 25 26 27 28 29 30 31 32 33 34 35 36 37 38 39 40 41 42 43 44 45 46 47 48 49 50
000
ASUS44 KFWD 211415
RWRTX
NORTH TEXAS HOURLY WEATHER ROUNDUP
NATIONAL WEATHER SERVICE FORT WORTH TX
900 AM CDT THU OCT 21 2021

NOTE: "FAIR" INDICATES FEW OR NO CLOUDS BELOW 12,000 FEET WITH NO
SIGNIFICANT WEATHER AND/OR OBSTRUCTIONS TO VISIBILITY.

TXZ118-119-211500-
DALLAS/FORT WORTH METROPLEX

CITY           SKY/WX    TMP DP  RH WIND       PRES   REMARKS
DFW AIRPORT    FAIR      67  48  50 N9        30.18R
DALLAS LOVE    FAIR      67  48  50 VRB7      30.18R
FTW MEACHAM    FAIR      65  49  56 NE8       30.19R
DAL-EXECUTIVE  FAIR      67  48  50 NE9       30.18R
FTW-ALLIANCE   FAIR      65  52  62 NE7       30.19R
FTW-NAS-JRB    FAIR      68  52  56 NE7       30.20R
FTW-SPINKS     SUNNY     64  59  82 N7        30.21R
ARLINGTON      FAIR      71  53  52 N12       30.19R
GRAND PRAIRIE  SUNNY     64  52  63 N7        30.20R
ADDISON        MOSUNNY   68  45  42 NE10      30.19R
MESQUITE       SUNNY     66  52  59 N8        30.19R
LANCASTER      FAIR      65  55  67 N6        30.19R
$$

TXZ091>094-102>105-117-120-121-131>134-211500-
NORTH CENTRAL TEXAS

CITY           SKY/WX    TMP DP  RH WIND       PRES   REMARKS
SHRMAN/DENISON SUNNY     63  46  55 NE10      30.22R
GAINESVILLE    FAIR      60  46  61 NE5       30.23R
BOWIE          FAIR      63  45  52 E3        30.21R
BRIDGEPORT     FAIR      62  52  67 CALM      30.23R
DECATUR        FAIR      62  46  54 NE9       30.21R
DENTON         FAIR      65  51  60 NE7       30.20R
MCKINNEY       PTSUNNY   66  48  52 NE10      30.19R
BONHAM         FAIR      64  49  59 N5        30.20R
GREENVILLE     FAIR      65  53  63 N10       30.19R
ROCKWALL       FAIR      65  51  60 N8        30.19R
TERRELL        FAIR      65  59  81 NE10      30.18R
WAXAHACHIE     FAIR      66  57  71 NE6       30.20R
CLEBURNE       SUNNY     66  59  77 NE12G18   30.20R
GRANBURY       FAIR      66  56  70 N3        30.22R
$$

TXZ083>090-098>101-113>116-127>130-139>142-154-155-211500-
WESTERN NORTH TEXAS

CITY           SKY/WX    TMP DP  RH WIND       PRES   REMARKS
WICHITA FALLS  PTSUNNY   56  47  71 NE6       30.22R
WF-KICKAPOO    FAIR      55  45  67 NE5       30.24R
VERNON         FAIR      54  46  73 NW7       30.25S
ABILENE        PTSUNNY   63  55  75 E5        30.23R
ABILENE-DYESS  PTSUNNY   60  49  67 CALM      30.22R
BRECKENRIDGE   CLOUDY    65  57  73 CALM      30.22R
CISCO          FAIR      57  55  94 N6        30.20R
EASTLAND       FAIR      59  56  90 MISG      30.22R
RANGER         PTSUNNY   62  56  80 NE7       30.22R
MINERAL WELLS  FAIR      63  52  67 CALM      30.19R
STEPHENVILLE   FAIR      63  58  84 N6        30.23R
COMANCHE       FAIR      65  64  97 CALM      30.21R
BROWNWOOD      CLOUDY    66  63  88 NW3       30.20S
COLEMAN        CLOUDY    65  59  81 N5        30.22R
BRADY            N/A     66  64  94 CALM        N/A
SAN SABA       FAIR      63  62  95 CALM      30.21R
$$

TXZ143>147-156>162-174-175-211500-
CENTRAL TEXAS

CITY           SKY/WX    TMP DP  RH WIND       PRES   REMARKS
WACO           FAIR      69  66  90 N7        30.17R
WACO-TSTC      SUNNY     68  64  88 CALM      30.17R
WACO-MCGREGOR  FAIR      68  64  87 N3        30.18R
CORSICANA      FAIR      67  65  93 N7        30.18R
MEXIA          FAIR      70  66  87 N3        30.16R
HEARNE         FAIR      68  66  93 CALM      30.16R
CAMERON        CLOUDY    69  66  91 CALM      30.16R
TEMPLE         FAIR      68  68 100 N3        30.18R
KILLEEN        CLOUDY    68  64  86 N7        30.16R
KILLEEN-SKYLRK PTSUNNY   68  65  90 CALM      30.18R
FORT HOOD      CLOUDY    68  64  88 CALM      30.18R
GATESVILLE     FAIR      68  64  88 CALM      30.19R
HAMILTON       FAIR      67  66  97 N7        30.21R
LAMPASAS       FAIR      68  64  88 N5        30.17R
$$

TXZ095>097-106>112-122>126-135>138-148>153-164>167-211500-
EAST TEXAS

CITY           SKY/WX    TMP DP  RH WIND       PRES   REMARKS
PARIS          FAIR      64  50  60 N10       30.19R
SULPHUR SPRNGS FAIR      66  58  75 N7        30.20R
MOUNT PLEASANT FAIR      68  64  86 NW7       30.17R
GILMER         FAIR     N/A N/A N/A NW3       30.16R
MINEOLA        FAIR      66  64  94 N6        30.18R
TYLER          FAIR      69  64  84 N6        30.16R
LONGVIEW       FAIR      67  62  84 NW3       30.14R
MARSHALL       FAIR      67  63  86 N5        30.17R
ATHENS         FAIR      66  63  88 CALM      30.14S
PALESTINE      FAIR      70  68  94 CALM      30.15R
JACKSONVILLE   FAIR      73  71  92 CALM      30.17R
HENDERSON      FAIR      67  64  88 CALM      30.16S
CENTER         FOG       77  73  88 MISG      30.16R VSB 1
NACOGDOCHES    FOG       72  70  94 CALM      30.16S VSB 1/4
LUFKIN         CLOUDY    72  72 100 CALM      30.15R FOG
$$

SUPPLEMENTAL OBSERVATIONS (NWS FORT WORTH AREA)

CITY           SKY/WX    TMP DP  RH WIND       PRES   REMARKS
POSSUM KINGDOM   N/A     64  48  55 E7          N/A
GRANBURY         N/A     68  55  64 N5          N/A
MCGREGOR         N/A     70  68  94 N2          N/A
TEMPLE           N/A     66  63  88 N1          N/A
PALESTINE        N/A     72  66  83 CALM        N/A
$$

SUPPLEMENTAL OBSERVATIONS (NWS NORMAN AREA)

CITY           SKY/WX    TMP DP  RH WIND       PRES   REMARKS
GOODLETT         N/A     53  42  65 NW6       30.26R
ODELL            N/A     51  45  81 NW7       30.27R
CROWELL          N/A     56  44  64 NW5       30.26R
KNOX CITY        N/A     60  45  56 NE3       30.24S
SEYMOUR          N/A     60  45  58 CALM      30.25R
MILLERS CREEK    N/A     61  48  63 NW6         N/A
$$

SUPPLEMENTAL OBSERVATIONS (NWS SAN ANGELO AREA)

CITY           SKY/WX    TMP DP  RH WIND       PRES   REMARKS
WEINERT          N/A     61  44  53 NE6       30.24S
HASKELL          N/A     63  44  49 E7        30.24R
THROCKMORTON     N/A     60  48  64 CALM      30.24R
STAMFORD         N/A     62  47  58 N5        30.25R
CLYDE            N/A     61  54  78 E9        30.24R
HAMBY            N/A     59  52  77 N2          N/A
IVIE RESERVOIR   N/A     66  59  77 NE1         N/A
COLORADO BEND    N/A     70  64  83 N1          N/A
$$

SUPPLEMENTAL OBSERVATIONS (NWS SHREVEPORT AREA)

CITY           SKY/WX    TMP DP  RH WIND       PRES   REMARKS
CADDO LAKE       N/A     64  63  94 CALM        N/A
LUFKIN           N/A     72  70  94 MISG        N/A
N SABINE NF      N/A     70  68  94 MISG        N/A
$$

SUPPLEMENTAL OBSERVATIONS ARE A COLLECTION OF AUTOMATED INSTRUMENTS
THAT ARE MAINTAINED BY A VARIETY OF FEDERAL AND STATE AGENCIES.
CERTAIN ELEMENTS...SUCH AS HUMIDITY VALUES AND SUSTAINED WIND
SPEEDS...MAY BE APPROXIMATED.




USA.gov is the U.S. government's official web portal to all federal, state and local government web resources and services.